[Date Prev][Date Next][Thread Prev][Thread Next] - [Date Index][Thread Index][Author Index]

2 Line ISS Keps 9-6



ISS
1 25544U 98067A   05248.97944501  .00024754  00000-0  18471-3 0  2953
2 25544 051.6429 207.2634 0001670 033.0587 077.5819 15.72585769388396
----
Via the sarex mailing list at AMSAT.ORG courtesy of AMSAT-NA.
To unsubscribe, send "unsubscribe sarex" to Majordomo@amsat.org



AMSAT Top AMSAT Home